sat.trackr.live / text

‹ back to catalog

STARLINK-31613

NORAD 59431 · 2024-065L

PAYLOAD ACTIVE UNKNOWN

§ Identity

Operator
Country
US
Launch date
2024-04-07
Launch site
AFWTR
Launch vehicle
Mass (kg)
RCS (m²)

Purposes: comms

External: N2YO · Heavens-Above · Gunter

§ Orbital elements

Epoch: 2026-09-21T21:01:48.152928Z

Period
93.85 min
Inclination
53.1614°
Eccentricity
0.0001258
Mean motion
15.34388945 rev/d
Perigee alt
461.9 km
Apogee alt
463.6 km
Semi-major
6,840.9 km
B*
1.5231e-5
RAAN
87.0609°
Arg perigee
88.9070°
Mean anomaly
271.2077°
Rev number
13,901

§ Raw data

STARLINK-316131 59431U 24065L   26264.87625177  .00000138  00000+0  15231-4 0  99992 59431  53.1614  87.0609 0001258  88.9070 271.2077 15.34388945139012

JSON: /api/v1/satellites/59431 · /tle

For live sub-satellite position, see the globe view (requires WebGL).

§ Visibility from observer

Set your observer location to see the next 7 days of passes ≥ 10°. The values pass through the URL so the page stays shareable.

No JS? Fill the form by hand. The geolocation button needs JavaScript.